| time (UTC) | temp F | wind direction | speed MPH | gust MPH | rain 1hr in | rain 24hr in | rain mn in | humidity % | barometer mb |
| 20260906204535 | 57 | 46 | 0.0 | 2.0 | 0.00 | 0.00 | 0.00 | 92 | 1014.9 |
| 20260906203032 | 58 | 47 | 0.0 | 2.0 | 0.00 | 0.00 | 0.00 | 89 | 1015.0 |
| 20260906201531 | 58 | 49 | 0.0 | 0.0 | 0.00 | 0.00 | 0.00 | 88 | 1015.2 |
| 20260906200029 | 59 | 49 | 0.0 | 1.0 | 0.00 | 0.00 | 0.00 | 87 | 1015.1 |
| 20260906194528 | 59 | 49 | 0.0 | 1.0 | 0.00 | 0.00 | 0.00 | 85 | 1015.4 |
| 20260906193028 | 59 | 48 | 0.0 | 3.0 | 0.00 | 0.00 | 0.00 | 84 | 1015.5 |
| 20260906191539 | 60 | 48 | 0.0 | 1.0 | 0.00 | 0.00 | 0.00 | 83 | 1015.5 |
| 20260906190034 | 59 | 49 | 0.0 | 2.0 | 0.00 | 0.00 | 0.00 | 83 | 1015.8 |
| 20260906184522 | 59 | 48 | 0.0 | 2.0 | 0.00 | 0.00 | 0.00 | 84 | 1015.9 |
| 20260906183024 | 58 | 50 | 0.0 | 3.0 | 0.00 | 0.00 | 0.00 | 84 | 1016.0 |
| 20260906181532 | 58 | 49 | 1.0 | 4.0 | 0.00 | 0.00 | 0.00 | 84 | 1015.8 |
| 20260906180019 | 58 | 24 | 0.0 | 3.0 | 0.00 | 0.01 | 0.00 | 83 | 1016.1 |
| 20260906174519 | 59 | 163 | 0.0 | 5.0 | 0.00 | 0.01 | 0.00 | 81 | 1016.3 |
| 20260906173018 | 60 | 36 | 0.0 | 4.0 | 0.00 | 0.01 | 0.00 | 80 | 1016.0 |
| 20260906171518 | 61 | 306 | 0.0 | 3.0 | 0.00 | 0.01 | 0.00 | 79 | 1016.1 |
| 20260906170017 | 61 | 122 | 0.0 | 0.0 | 0.00 | 0.01 | 0.00 | 82 | 1016.2 |
| 20260906164516 | 61 | 87 | 0.0 | 0.0 | 0.00 | 0.01 | 0.00 | 79 | 1016.3 |
| 20260906163022 | 61 | 87 | 0.0 | 0.0 | 0.00 | 0.01 | 0.00 | 79 | 1016.0 |
| 20260906161512 | 61 | 86 | 0.0 | 0.0 | 0.00 | 0.01 | 0.00 | 81 | 1016.3 |
| 20260906160026 | 58 | 115 | 0.0 | 1.0 | 0.00 | 0.01 | 0.00 | 86 | 1016.4 |
| 20260906154505 | 57 | 131 | 0.0 | 1.0 | 0.00 | 0.01 | 0.00 | 89 | 1016.5 |
| 20260906153102 | 56 | 131 | 0.0 | 2.0 | 0.00 | 0.01 | 0.00 | 88 | 1016.5 |
| 20260906151602 | 56 | 130 | 0.0 | 0.0 | 0.00 | 0.01 | 0.00 | 92 | 1016.8 |
| 20260906150052 | 55 | 141 | 0.0 | 1.0 | 0.00 | 0.01 | 0.00 | 94 | 1016.8 |
| 20260906144550 | 54 | 133 | 0.0 | 1.0 | 0.00 | 0.01 | 0.00 | 94 | 1017.0 |
| 20260906143107 | 54 | 133 | 0.0 | 0.0 | 0.00 | 0.01 | 0.00 | 94 | 1017.0 |
| 20260906141551 | 54 | 133 | 0.0 | 0.0 | 0.00 | 0.01 | 0.00 | 94 | 1017.1 |
| 20260906140048 | 54 | 133 | 0.0 | 1.0 | 0.00 | 0.01 | 0.00 | 94 | 1017.1 |
| 20260906134551 | 53 | 133 | 0.0 | 1.0 | 0.00 | 0.01 | 0.00 | 94 | 1017.2 |
| 20260906133050 | 53 | 132 | 0.0 | 0.0 | 0.00 | 0.01 | 0.00 | 94 | 1017.3 |
| 20260906131554 | 53 | 133 | 0.0 | 0.0 | 0.00 | 0.01 | 0.00 | 94 | 1017.3 |
| 20260906130047 | 53 | 133 | 0.0 | 1.0 | 0.00 | 0.01 | 0.00 | 94 | 1017.5 |
| 20260906124547 | 53 | 133 | 0.0 | 1.0 | 0.00 | 0.01 | 0.00 | 94 | 1017.6 |
| 20260906123044 | 53 | 133 | 0.0 | 1.0 | 0.00 | 0.01 | 0.00 | 94 | 1017.4 |
| 20260906121545 | 53 | 129 | 0.0 | 0.0 | 0.00 | 0.01 | 0.00 | 94 | 1017.3 |
| 20260906120043 | 53 | 129 | 0.0 | 0.0 | 0.00 | 0.01 | 0.00 | 94 | 1017.4 |
| 20260906114542 | 53 | 129 | 0.0 | 0.0 | 0.00 | 0.01 | 0.00 | 94 | 1017.2 |
| 20260906113046 | 53 | 129 | 0.0 | 0.0 | 0.00 | 0.01 | 0.00 | 94 | 1017.3 |
| 20260906111540 | 53 | 129 | 0.0 | 0.0 | 0.00 | 0.01 | 0.00 | 94 | 1017.6 |
| 20260906110037 | 53 | 129 | 0.0 | 0.0 | 0.00 | 0.01 | 0.00 | 94 | 1017.8 |
| 20260906104537 | 53 | 129 | 0.0 | 0.0 | 0.00 | 0.01 | 0.00 | 94 | 1017.9 |
| 20260906103036 | 53 | 129 | 0.0 | 0.0 | 0.00 | 0.01 | 0.00 | 94 | 1018.3 |
| 20260906101534 | 52 | 129 | 0.0 | 0.0 | 0.00 | 0.01 | 0.00 | 94 | 1018.3 |
| 20260906100034 | 52 | 129 | 0.0 | 0.0 | 0.00 | 0.02 | 0.00 | 94 | 1018.3 |
| 20260906094536 | 52 | 129 | 0.0 | 0.0 | 0.00 | 0.02 | 0.00 | 94 | 1018.2 |
| 20260906093033 | 52 | 129 | 0.0 | 0.0 | 0.00 | 0.02 | 0.00 | 94 | 1018.3 |
| 20260906091534 | 52 | 129 | 0.0 | 0.0 | 0.00 | 0.02 | 0.00 | 94 | 1018.3 |
| 20260906090028 | 53 | 129 | 0.0 | 0.0 | 0.00 | 0.02 | 0.00 | 93 | 1018.7 |
| 20260906084529 | 53 | 130 | 0.0 | 0.0 | 0.00 | 0.02 | 0.00 | 93 | 1018.9 |
| 20260906083027 | 53 | 128 | 0.0 | 0.0 | 0.00 | 0.02 | 0.00 | 92 | 1019.1 |
| 20260906081534 | 53 | 129 | 0.0 | 0.0 | 0.00 | 0.02 | 0.00 | 91 | 1019.1 |
| 20260906080024 | 53 | 128 | 0.0 | 0.0 | 0.00 | 0.02 | 0.00 | 90 | 1019.1 |
| 20260906074523 | 53 | 129 | 0.0 | 1.0 | 0.00 | 0.02 | 0.00 | 90 | 1019.0 |
| 20260906073022 | 53 | 123 | 0.0 | 0.0 | 0.00 | 0.02 | 0.00 | 90 | 1019.0 |
| 20260906071521 | 53 | 123 | 0.0 | 1.0 | 0.00 | 0.02 | 0.00 | 90 | 1019.2 |
| 20260906070021 | 53 | 117 | 0.0 | 1.0 | 0.00 | 0.02 | 0.00 | 90 | 1019.3 |
| 20260906064519 | 53 | 113 | 0.0 | 0.0 | 0.00 | 0.02 | 0.00 | 90 | 1019.3 |
| 20260906063021 | 53 | 113 | 0.0 | 1.0 | 0.00 | 0.02 | 0.00 | 89 | 1019.3 |
| 20260906061518 | 53 | 127 | 0.0 | 1.0 | 0.00 | 0.02 | 0.00 | 89 | 1019.3 |
| 20260906060015 | 54 | 116 | 0.0 | 2.0 | 0.00 | 0.02 | 0.02 | 89 | 1019.3 |
| 20260906054516 | 54 | 117 | 0.0 | 1.0 | 0.00 | 0.02 | 0.02 | 89 | 1019.4 |
| 20260906053014 | 54 | 127 | 0.0 | 1.0 | 0.00 | 0.02 | 0.02 | 88 | 1019.4 |
| 20260906051514 | 54 | 82 | 0.0 | 0.0 | 0.00 | 0.02 | 0.02 | 88 | 1019.4 |
| 20260906050040 | 54 | 66 | 0.0 | 1.0 | 0.00 | 0.02 | 0.02 | 88 | 1019.4 |
| 20260906044513 | 54 | 70 | 0.0 | 0.0 | 0.00 | 0.02 | 0.02 | 88 | 1019.3 |
| 20260906043012 | 54 | 69 | 0.0 | 0.0 | 0.00 | 0.02 | 0.02 | 87 | 1019.1 |
| 20260906041516 | 54 | 69 | 0.0 | 0.0 | 0.00 | 0.02 | 0.02 | 87 | 1019.0 |
| 20260906040011 | 54 | 69 | 0.0 | 0.0 | 0.00 | 0.02 | 0.02 | 87 | 1019.2 |
| 20260906034512 | 54 | 69 | 0.0 | 0.0 | 0.00 | 0.02 | 0.02 | 87 | 1019.2 |
| 20260906033011 | 54 | 69 | 0.0 | 0.0 | 0.00 | 0.02 | 0.02 | 87 | 1019.1 |
| 20260906031509 | 54 | 69 | 0.0 | 0.0 | 0.00 | 0.02 | 0.02 | 87 | 1019.2 |
| 20260906030008 | 54 | 69 | 0.0 | 0.0 | 0.00 | 0.02 | 0.02 | 87 | 1019.2 |
| 20260906024510 | 54 | 69 | 0.0 | 0.0 | 0.00 | 0.02 | 0.02 | 87 | 1019.1 |
| 20260906023008 | 55 | 69 | 0.0 | 0.0 | 0.00 | 0.02 | 0.02 | 87 | 1019.0 |
| 20260906021506 | 55 | 69 | 0.0 | 0.0 | 0.00 | 0.02 | 0.02 | 86 | 1019.0 |
| 20260906020005 | 55 | 65 | 0.0 | 0.0 | 0.00 | 0.02 | 0.02 | 86 | 1018.7 |
| 20260906014508 | 55 | 67 | 0.0 | 0.0 | 0.00 | 0.02 | 0.02 | 86 | 1018.8 |
| 20260906013004 | 55 | 67 | 0.0 | 0.0 | 0.00 | 0.02 | 0.02 | 86 | 1018.6 |
| 20260906011501 | 55 | 68 | 0.0 | 0.0 | 0.00 | 0.02 | 0.02 | 85 | 1018.5 |
| 20260906010100 | 55 | 67 | 0.0 | 0.0 | 0.00 | 0.02 | 0.02 | 85 | 1018.5 |
| 20260906004601 | 55 | 67 | 0.0 | 0.0 | 0.00 | 0.02 | 0.02 | 85 | 1018.5 |
| 20260906003107 | 56 | 66 | 0.0 | 0.0 | 0.00 | 0.02 | 0.02 | 84 | 1018.6 |
| 20260906001559 | 55 | 68 | 0.0 | 0.0 | 0.00 | 0.02 | 0.02 | 84 | 1018.5 |
| 20260906000058 | 56 | 65 | 0.0 | 0.0 | 0.00 | 0.02 | 0.02 | 84 | 1018.3 |
| 20260905234613 | 56 | 66 | 0.0 | 0.0 | 0.00 | 0.02 | 0.02 | 84 | 1018.2 |
| 20260905233057 | 56 | 64 | 0.0 | 1.0 | 0.00 | 0.02 | 0.02 | 83 | 1018.2 |
| 20260905231556 | 56 | 75 | 0.0 | 1.0 | 0.00 | 0.02 | 0.02 | 83 | 1018.3 |
| 20260905230054 | 56 | 77 | 0.0 | 1.0 | 0.00 | 0.02 | 0.02 | 83 | 1018.3 |
| 20260905224551 | 56 | 62 | 0.0 | 1.0 | 0.00 | 0.02 | 0.02 | 83 | 1018.3 |
| 20260905223051 | 56 | 63 | 0.0 | 0.0 | 0.00 | 0.02 | 0.02 | 83 | 1018.6 |
| 20260905221547 | 55 | 65 | 0.0 | 0.0 | 0.00 | 0.02 | 0.02 | 83 | 1018.7 |
| 20260905220048 | 56 | 89 | 0.0 | 0.0 | 0.00 | 0.02 | 0.02 | 83 | 1018.7 |
| 20260905214557 | 55 | 66 | 0.0 | 0.0 | 0.00 | 0.02 | 0.02 | 83 | 1018.7 |
| 20260905213047 | 55 | 79 | 0.0 | 1.0 | 0.00 | 0.02 | 0.02 | 84 | 1018.7 |
| 20260905211544 | 55 | 62 | 0.0 | 1.0 | 0.00 | 0.02 | 0.02 | 84 | 1018.7 |
| 20260905210045 | 55 | 67 | 0.0 | 2.0 | 0.00 | 0.02 | 0.02 | 86 | 1018.6 |